www.pogodaiklimat.ru
ПОГОДА в Уоупаке
Время
(UTC), дата
08:55 14.11
09:15 14.11
09:35 14.11
09:55 14.11
10:15 14.11
10:35 14.11
10:55 14.11
11:15 14.11
11:35 14.11
11:55 14.11
12:15 14.11
12:35 14.11
12:55 14.11
13:15 14.11
13:35 14.11
13:55 14.11
14:15 14.11
14:35 14.11
14:55 14.11
15:15 14.11
15:35 14.11
15:55 14.11
16:15 14.11
16:35 14.11
16:55 14.11
17:15 14.11
17:35 14.11
17:55 14.11
18:15 14.11
18:35 14.11
18:55 14.11
19:15 14.11
19:35 14.11
19:55 14.11
20:15 14.11
20:35 14.11
20:55 14.11
21:15 14.11
21:35 14.11
21:55 14.11
22:15 14.11
22:35 14.11
22:55 14.11
23:15 14.11
23:35 14.11
23:55 14.11
00:15 14.11
00:35 14.11
Ветер
(напр.,м/с)
Видим. Явления Облачность Т
(С)
Тd
(С)
f
(%)
Тe
(С)
Тes
(С)
Комфортность P
(гПа)
Po
(гПа)
Тmin
(С)
Tmax
(С)
R
(мм)
R24
(мм)
S
(см)
СЗ 1 16 км 10/10 1050 м -4.2 -7.0 81 -8 -8 988.8
З 1 16 км 10/10 1050 м -4.2 -7.1 80 -8 -8 989.1
З 1 16 км 10/10 990 м -4.0 -7.5 77 -7 -7 989.4
З 2 16 км 10/10 990 м -4.0 -7.8 75 -9 -9 989.7
СЗ 3 16 км 10/10 990 м -4.0 -8.2 73 -9 -9 990.1
СЗ 2 16 км 10/10 930 м -3.9 -8.3 71 -9 -9 990.1
З 1 16 км 10/10 930 м -3.7 -8.4 70 -7 -7 990.1 -4.7 -3.6
СЗ 1 16 км 10/10 930 м -3.9 -8.5 70 -7 -7 990.4
СЗ 1 16 км 10/10 930 м -4.0 -9.0 68 -7 -7 990.7
СЗ 2 16 км 10/10 930 м -3.9 -9.5 65 -8 -8 991.1
З 1 16 км 10/10 930 м -3.9 -9.5 65 -7 -7 991.1
З 2 16 км 10/10 930 м -3.9 -9.3 66 -8 -8 991.4
З 2 16 км 10/10 930 м -3.5 -9.6 63 -8 -8 991.7
З 3 16 км 10/10 990 м -3.5 -9.2 65 -8 -8 991.7
З 2 16 км 10/10 990 м -3.2 -9.3 63 -8 -8 992.0
З 2 16 км 10/10 990 м -3.0 -9.6 60 -7 -7 992.0
З 3 16 км 10/10 930 м -2.9 -9.9 58 -8 -8 992.0
З 3 16 км 10/10 870 м -2.7 -9.7 59 -8 -8 992.0
З 3 16 км 10/10 810 м -2.6 -9.3 60 -8 -8 992.4
З 3 16 км 10/10 810 м -2.5 -9.5 59 -7 -7 992.4
З 5 16 км 10/10 810 м -2.2 -9.3 58 -9 -9 992.7
З 5 16 км 10/10 870 м -2.2 -9.1 59 -9 -9 992.7
З 4 16 км 10/10 870 м -2.0 -9.3 57 -8 -8 992.7
З 4 16 км 10/10 870 м -1.9 -9.0 58 -7 -7 992.7
З 5
{8}
16 км 10/10 870 м -1.2 -8.6 57 -8 -8 992.0 -4.0 -1.2
ЮЗ 4
{8}
16 км 8/8 870 м -0.6 -8.6 55 -6 -6 991.7
З 4 16 км 5/5 870 м -0.6 -8.6 55 -6 -5 991.7
ЮЗ 6 16 км 5/5 870 м -0.5 -8.4 55 -7 -6 991.4
З 4
{7}
16 км ясно -0.2 -8.3 54 -5 -3 991.1
ЮЗ 6 16 км ясно -0.5 -8.0 57 -7 -6 991.1
ЮЗ 7 16 км ясно -0.5 -8.1 56 -7 -7 991.1
ЮЗ 6
{9}
16 км ясно -0.8 -7.9 59 -7 -7 991.1
ЮЗ 7 16 км 5/5 750 м -1.0 -7.6 61 -8 -8 991.1
ЮЗ 6 16 км ясно -1.3 -7.3 64 -8 -8 991.1
ЮЗ 6
{8}
16 км ясно -1.1 -7.3 63 -8 -8 991.4
ЮЗ 7
{9}
16 км ясно -1.1 -7.5 62 -8 -8 991.1
ЮЗ 4 16 км ясно -1.4 -7.3 64 -7 -7 991.1
ЮЗ 4 16 км ясно -1.7 -7.3 66 -8 -8 991.1
ЮЗ 3 16 км ясно -2.3 -7.5 67 -7 -7 991.1
ЮЗ 3 16 км ясно -3.0 -7.6 71 -8 -8 991.1
ЮЗ 3 16 км ясно -3.0 -7.6 71 -8 -8 991.4
ЮЗ 3 16 км ясно -3.2 -7.5 72 -9 -9 991.1
ЮЗ 3 16 км ясно -3.3 -7.6 72 -9 -9 991.1 -3.4 -0.2
ЮЗ 3 16 км ясно -3.5 -7.6 73 -9 -9 991.1
ЮЗ 3 16 км ясно -3.5 -7.6 73 -9 -9 990.7
ЮЗ 3 16 км ясно -4.0 -7.8 75 -9 -9 991.1
ЮЗ 2 16 км ясно -4.1 -7.8 75 -9 -9 990.7
Ю 1 16 км ясно -4.0 -7.6 76 -7 -7 991.1
Местоположение метеостанции Waupaca Municipal Airport: широта 44.3300 долгота -89.0200 высота над уровнем моря 252 м.
В архиве по умолчанию представлена погода в Уоупаке за последние 1-2 суток. Обновление информации о фактической погоде в базе происходит ежечасно! Архивные данные за месяц целиком и за предыдущие месяцы Вы можете получить, выбрав интересующий диапазон дат из раскрывающегося списка и нажав кнопку "Ввод!".
Внимание! Архив погоды МЕТАР в базе сайта по станциям, не включенным в климатический монитор, хранится не более 60 дней. Нет смысла пытаться выбрать более раннюю дату.
*Определитесь, кто Вы:
Внимание! Время в таблицах - всемирное. Для получения местного времени необходимо прибавить поправку, которая равна ч.
Смотрите также архив погоды в соседних городах и на ближайших метеорологических станциях:
Партнеры нашего сайта:      
Пояснения к столбцам:
  • Ветер - указаны скорость ветра в м/с - средняя за 10 мин, порывы в срок и между сроками (в фигурных скобках) и направление, откуда дует ветер: С - северный,
  • СВ - северо-восточный, В - восточный, ЮВ - юго-восточный, Ю - южный, ЮЗ - юго-западный, З - западный, СЗ - северо-западный.
  • Видимость - горизонтальная дальность видимости в метрах или километрах. При видимости от 1 до 10 км при отсутствии осадков обычно наблюдается дымка, при ухудшении видимости до 1 км и менее - туман. В сухую погоду видимость может ухудшаться дымом, пылью или мглою.
  • Явления - указаны атмосферные явления, наблюдавшиеся в срок или в последний час перед сроком; фигурными скобками обозначены явления, наблюдавшиеся между сроками (за 1-3 часа до срока); квадратными скобками обозначены град или гололедные отложения с указанием их диаметра в мм.
  • Облачность - указаны через наклонную черту общая и нижняя облачность в баллах и высота нижней границы облаков в метрах; квадратными скобками обозначены формы облаков: Ci - перистые, Cs - перисто-слоистые, Cc - перисто-кучевые, Ac - высококучевые, As - высокослоистые, Sc - слоисто-кучевые, Ns - слоисто-дождевые, Cu - кучевые, Cb - кучево-дождевые. Подробнее классификацию облаков см. в Атласе облаков (PDF).
  • T - Температура воздуха - температура, измеренная на высоте 2 м над землей.
  • Td - Температура точки росы - температура, при понижении до которой содержащийся в воздухе водяной пар достигнет насыщения.
  • f - Относительная влажность воздуха - влажноcть воздуха, измеренная на высоте 2 м над землей.
  • Te - Эффективная температура - температура, которую ощущает одетый по сезону человек в тени. Характеристика душности погоды. При расчете учитывается влияние влажности воздуха и скорости ветра на теплоощущения человека.
  • Tes - Эффективная температура на солнце - температура, которую ощущает человек, с поправкой на солнечный нагрев. Характеристика знойности погоды. Зависит от высоты солнца над горизонтом, облачности и скорости ветра. Ночью, в пасмурную погоду, а также при ветре 12 м/с и более поправка равна нулю.
  • P - Атмосферное давление - приведенное к уровню моря атмосферное давление.
  • Po - Атмосферное давление - измеренное на уровне метеостанции атмосферное давление.
  • Tmin - Минимальная температура - минимум температуры воздуха на высоте 2 м над землей.
  • Tmax - Максимальная температура - максимум температуры воздуха на высоте 2 м над землей.
  • R - Количество осадков - Количество выпавших осадков за период времени, мм. При наведении курсора мыши на число - период времени, за который выпало указанное количество осадков.
  • R24 - Количество осадков - Количество выпавших осадков за 24 часа, мм.
  • S - Снежный покров - Высота снежного покрова, см. При наведении курсора мыши на число - состояние снежного покрова и степень покрытия местности в баллах.